Powrót do katalogu

COSMOS 2251 DEB

AktywnyLEO
NORAD 34823·DEBRIS·🇷🇺 Russia

Wystrzelony Jun 16, 1993 z Plesetsk Cosmodrome

Loading…

Następne Przeloty (najbliższe 24 godziny)

TLE

ŚwieżeSource: Space-Track

Epoka: Sep 14, 2026, 13:19 UTC

1 34823U 93036ABN 26257.55524813  .00001166  00000-0  23273-3 0  9990
2 34823  74.0394 299.6307 0154024 313.7603  45.0895 14.55959263923941

Śledź COSMOS 2251 DEB w czasie rzeczywistym z AllMySat

Download on the App Store